{"data":{"norad_id":62190,"intl_designator":"2024-228A","name":"HAISHAO-1","alt_names":[],"object_type":"PAYLOAD","status":"ACTIVE","operator":null,"country":"PRC","launch_date":"2024-12-04","launch_site_code":"XICLF","launch_vehicle":null,"mission":null,"orbit_class":"UNKNOWN","rcs_meters":null,"size_class":null,"mass_kg":null,"dimensions":null,"purposes":[],"wikipedia_slug":null,"has_3d_model":false,"image_url":null,"decayed_at":null,"tle_current":{"epoch":"2026-09-22T21:11:44.263680Z","epoch_age_seconds":104317,"freshness":"FRESH","line1":"1 62190U 24228A   26265.88315120  .00021617  00000+0  21620-3 0  9995","line2":"2 62190  42.9777 141.1155 0005040 280.3430  79.6867 15.65139614102897","mean_motion":15.65139614,"eccentricity":0.000504,"inclination_deg":42.9777,"raan_deg":141.1155,"arg_perigee_deg":280.343,"mean_anomaly_deg":79.6867,"bstar":0.0002162,"rev_number":10289,"period_min":92.004571804289,"perigee_km":369.43477042405,"apogee_km":376.23975247959,"semimajor_km":6750.9742614518,"source":"CELESTRAK","updated_at":"2026-09-23T09:00:21.293097Z"}}}